User: anonymous   Login
Location: Unspecified
(0.0000°N, 0.0000°E)
Time: 19:30:42
(UTC+00:00)
Language:

XW-2E - Orbit

View from above orbital plane
View from above orbital plane
View from above satellite
View from above satellite

Ground track
Ground track

The orbit data is extracted from the following two-line orbital elements,

1 40909U 15049L   18202.53746585  .00000879  00000-0  47697-4 0  9998
2 40909  97.4557 207.1411 0012142 267.2770  92.7073 15.17096748156826
Epoch (UTC): 21 July 2018 12:53:57
Eccentricity: 0.0012142
inclination: 97.4557°
perigee height: 506 km
apogee height: 523 km
right ascension of ascending node: 207.1411°
argument of perigee: 267.2770°
revolutions per day: 15.17096748
mean anomaly at epoch: 92.7073°
orbit number at epoch: 15682

The dashed part of the orbit path shows where the satellite is in the earth's shadow,  

DLR